This demonstration page uses our WeatherBlox Daily Observations layout. Learn more.

Left ArrowRight Arrow

Hourly Observations for May 27, 2022

Temp ( °F °C ) Dew Point ( °F °C ) Humidity (%) Winds ( mph kmh ) Pressure ( in mb ) Visibility ( mi km ) Precip ( " mm )
12:15 am 00:15 Clear 55 12.8 47 8.4 75 75 S 6 9 29.95 1014 10 16 0.00 0.00
12:35 am 00:35 Clear 56 13.3 47 8.5 73 73 S 5 7 29.94 1014 10 16 0.00 0.00
12:55 am 00:55 Clear 55 12.9 47 8.2 73 73 S 7 11 29.95 1014 10 16 0.00 0.00
1:15 am 01:15 Clear 56 13.3 47 8.3 72 72 S 6 9 29.95 1014 10 16 0.00 0.00
1:35 am 01:35 Clear 56 13.4 47 8.3 71 71 S 7 11 29.94 1014 10 16 0.00 0.00
1:55 am 01:55 Clear 56 13.1 47 8.3 73 73 S 7 11 29.96 1014 10 16 0.00 0.00
2:15 am 02:15 Clear 56 13.2 47 8.6 74 74 SSW 7 11 29.94 1014 10 16 0.00 0.00
2:35 am 02:35 Clear 55 12.7 47 8.2 74 74 S 6 9 29.95 1014 10 16 0.00 0.00
2:55 am 02:55 Clear 54 12.2 47 8.1 76 76 S 6 9 29.96 1015 10 16 0.00 0.00
3:15 am 03:15 Clear 53 11.6 47 8.2 80 80 SSW 5 7 29.97 1015 10 16 0.00 0.00
3:35 am 03:35 Clear 53 11.5 46 8 79 79 SSW 5 7 29.97 1015 10 16 0.00 0.00
3:55 am 03:55 Clear 53 11.8 47 8.3 79 79 SW 8 13 29.97 1015 10 16 0.00 0.00
4:15 am 04:15 Clear 55 12.6 47 8.5 76 76 SW 7 11 29.96 1015 10 16 0.00 0.00
4:35 am 04:35 Clear 55 12.5 47 8.4 76 76 SSW 6 9 29.96 1015 10 16 0.00 0.00
4:55 am 04:55 Clear 54 12.1 47 8.2 77 77 SSW 6 9 29.96 1015 10 16 0.00 0.00
5:15 am 05:15 Clear 53 11.9 47 8.1 78 78 SSW 3 6 29.96 1014 10 16 0.00 0.00
5:35 am 05:35 Clear 54 12.4 46 8 75 75 SSW 3 6 29.95 1014 10 16 0.00 0.00
5:55 am 05:55 Clear 54 12.3 46 7.9 75 75 S 5 7 29.95 1014 10 16 0.00 0.00
6:15 am 06:15 Sunny 51 10.7 46 7.7 82 82 S 7 11 29.98 1015 10 16 0.00 0.00
6:35 am 06:35 Sunny 51 10.6 46 7.8 83 83 SSW 5 7 29.98 1015 10 16 0.00 0.00
6:55 am 06:55 Sunny 53 11.7 47 8.4 80 80 SSW 5 7 29.97 1015 10 16 0.00 0.00
7:15 am 07:15 Sunny 55 12.5 48 9 79 79 SSW 5 7 29.96 1015 10 16 0.00 0.00
7:35 am 07:35 Sunny 56 13.3 49 9.5 78 78 S 3 6 29.95 1014 10 16 0.00 0.00
7:55 am 07:55 Sunny 58 14.7 51 10.3 75 75 S 3 6 29.94 1014 10 16 0.00 0.00
8:15 am 08:15 Sunny 60 15.7 51 10.7 72 72 S 3 6 29.93 1014 10 16 0.00 0.00
8:35 am 08:35 Sunny 63 17 51 10.5 66 66 S 5 7 29.92 1013 10 16 0.00 0.00
8:55 am 08:55 Sunny 64 18 51 10.8 63 63 S 7 11 29.91 1013 10 16 0.00 0.00
9:15 am 09:15 Sunny 66 18.9 52 10.9 60 60 S 9 15 29.91 1013 10 16 0.00 0.00
9:35 am 09:35 Sunny 67 19.5 52 10.9 58 58 S 8 13 29.89 1012 10 16 0.00 0.00
9:55 am 09:55 Sunny 70 21.2 51 10.8 52 52 SSW 9 15 29.88 1012 10 16 0.00 0.00
10:15 am 10:15 Sunny 72 22.3 51 10.6 48 48 SSW 9 15 29.86 1011 10 16 0.00 0.00
10:35 am 10:35 Sunny 74 23.2 50 10 43 43 SSW 9 15 29.85 1011 10 16 0.00 0.00
10:55 am 10:55 Sunny 76 24.4 50 9.8 40 40 SSW 15 24 29.82 1010 10 16 0.00 0.00
11:15 am 11:15 Sunny 76 24.7 50 10 40 40 SSW 14 22 29.81 1009 10 16 0.00 0.00
11:35 am 11:35 Sunny 77 25.2 51 10.8 40 40 S 13 20 29.81 1009 10 16 0.00 0.00
11:55 am 11:55 Sunny 79 26 53 11.4 40 40 S 15 24 29.80 1009 10 16 0.00 0.00
12:15 pm 12:15 Sunny 81 27 53 11.6 38 38 SSW 14 22 29.78 1009 10 16 0.00 0.00
12:35 pm 12:35 Sunny 82 27.5 52 11.3 36 36 S 14 22 29.78 1008 10 16 0.00 0.00
12:55 pm 12:55 Sunny 83 28.2 52 11.2 35 35 S 12 19 29.76 1008 10 16 0.00 0.00
1:15 pm 13:15 Sunny 83 28.5 51 10.3 32 32 SSW 15 24 29.75 1007 10 16 0.00 0.00
1:35 pm 13:35 Sunny 84 29.1 51 10.6 32 32 S 14 22 29.74 1007 10 16 0.00 0.00
1:55 pm 13:55 Sunny 85 29.7 50 10.2 30 30 S 14 22 29.72 1006 10 16 0.00 0.00
2:15 pm 14:15 Sunny 86 30.1 47 8.3 26 26 SSW 16 26 29.71 1006 10 16 0.00 0.00
2:35 pm 14:35 Sunny 87 30.5 49 9.3 27 27 S 18 30 29.69 1006 10 16 0.00 0.00
2:55 pm 14:55 Sunny 87 30.5 50 10 28 28 SSW 17 28 29.68 1005 10 16 0.00 0.00
3:15 pm 15:15 Sunny 87 30.7 49 9.7 27 27 S 18 30 29.68 1005 10 16 0.00 0.00
3:35 pm 15:35 Sunny 87 30.8 51 10.4 28 28 S 18 30 29.67 1005 10 16 0.00 0.00
3:55 pm 15:55 Sunny 88 31 51 10.3 28 28 S 15 24 29.66 1004 10 16 0.00 0.00
4:15 pm 16:15 Sunny 87 30.7 50 10.1 28 28 S 21 33 29.66 1005 10 16 0.00 0.00
4:35 pm 16:35 Sunny 88 31.2 51 10.8 28 28 S 20 31 29.65 1004 10 16 0.00 0.00
4:55 pm 16:55 Sunny 88 31.1 50 10.2 27 27 S 20 31 29.64 1004 10 16 0.00 0.00
5:15 pm 17:15 Sunny 89 31.4 50 9.9 26 26 S 22 35 29.63 1003 10 16 0.00 0.00
5:35 pm 17:35 Sunny 88 31.2 50 9.9 27 27 S 23 37 29.62 1003 10 16 0.00 0.00
5:55 pm 17:55 Sunny 88 31.3 48 9 25 25 S 22 35 29.61 1003 10 16 0.00 0.00
6:15 pm 18:15 Sunny 87 30.8 52 11.1 30 30 SSE 23 37 29.60 1002 10 16 0.00 0.00
6:35 pm 18:35 Sunny 87 30.5 52 11.2 30 30 S 25 41 29.59 1002 10 16 0.00 0.00
6:55 pm 18:55 Sunny 86 30.2 52 11.1 31 31 S 23 37 29.60 1002 10 16 0.00 0.00
7:15 pm 19:15 Sunny 85 29.5 53 11.4 33 33 SSE 22 35 29.60 1002 10 16 0.00 0.00
7:35 pm 19:35 Sunny 84 28.8 54 12 35 35 S 21 33 29.61 1003 10 16 0.00 0.00
7:55 pm 19:55 Sunny 81 27.3 55 12.7 40 40 SSE 18 30 29.61 1003 10 16 0.00 0.00
8:15 pm 20:15 Sunny 79 25.9 55 13 45 45 SSE 14 22 29.63 1003 10 16 0.00 0.00
8:35 pm 20:35 Sunny 77 25 55 12.8 47 47 SSE 16 26 29.64 1004 10 16 0.00 0.00
8:55 pm 20:55 Sunny 75 24 55 12.7 49 49 SSE 14 22 29.65 1004 10 16 0.00 0.00
9:15 pm 21:15 Clear 74 23.4 55 13 52 52 SSE 17 28 29.64 1004 10 16 0.00 0.00
9:35 pm 21:35 Clear 73 22.5 56 13.4 57 57 SSE 15 24 29.65 1004 10 16 0.00 0.00
9:55 pm 21:55 Clear 72 22.4 56 13.5 57 57 SSE 17 28 29.66 1004 10 16 0.00 0.00
10:15 pm 22:15 Clear 71 21.7 56 13.6 60 60 SSE 16 26 29.66 1005 10 16 0.00 0.00
10:35 pm 22:35 Clear 71 21.5 56 13.6 61 61 SSE 16 26 29.67 1005 10 16 0.00 0.00
10:55 pm 22:55 Clear 71 21.4 56 13.5 61 61 S 15 24 29.68 1005 10 16 0.00 0.00
11:15 pm 23:15 Clear 70 21.1 56 13.5 62 62 S 14 22 29.69 1005 10 16 0.00 0.00
11:35 pm 23:35 Clear 70 21 57 13.7 63 63 NW 18 30 29.75 1007 10 16 0.00 0.00
11:55 pm 23:55 Clear 73 22.5 55 13 55 55 SSW 10 17 29.69 1005 10 16 0.00 0.00

Powered by AerisWeather